owner,sensor,date,latitude,longitude,sea_water_turbidity,qcFlag 
NERRS,ioos:station:NOAA.NERRS:marmbwq:1,2014-11-01T00:30:00Z,28.1384,-96.8285,21.0,1111122 
NERRS,ioos:station:NOAA.NERRS:marmbwq:1,2014-11-01T03:30:00Z,28.1384,-96.8285,38.0,1111122 
NERRS,ioos:station:NOAA.NERRS:marmbwq:1,2014-11-01T05:30:00Z,28.1384,-96.8285,28.0,1111122 
NERRS,ioos:station:NOAA.NERRS:marmbwq:1,2014-11-01T07:30:00Z,28.1384,-96.8285,40.0,1111122 
NERRS,ioos:station:NOAA.NERRS:marmbwq:1,2014-11-01T08:30:00Z,28.1384,-96.8285,24.0,1111122 
NERRS,ioos:station:NOAA.NERRS:marmbwq:1,2014-11-01T09:30:00Z,28.1384,-96.8285,25.0,1111122 
NERRS,ioos:station:NOAA.NERRS:marmbwq:1,2014-11-01T10:30:00Z,28.1384,-96.8285,31.0,1111122 
NERRS,ioos:station:NOAA.NERRS:marmbwq:1,2014-11-01T11:30:00Z,28.1384,-96.8285,27.0,1111122 
NERRS,ioos:station:NOAA.NERRS:marmbwq:1,2014-11-01T12:30:00Z,28.1384,-96.8285,38.0,1111122 
NERRS,ioos:station:NOAA.NERRS:marmbwq:1,2014-11-01T13:30:00Z,28.1384,-96.8285,36.0,1111122 
NERRS,ioos:station:NOAA.NERRS:marmbwq:1,2014-11-01T14:30:00Z,28.1384,-96.8285,30.0,1111122 
NERRS,ioos:station:NOAA.NERRS:marmbwq:1,2014-11-01T15:30:00Z,28.1384,-96.8285,40.0,1111122 
NERRS,ioos:station:NOAA.NERRS:marmbwq:1,2014-11-01T16:30:00Z,28.1384,-96.8285,34.0,1111122 
NERRS,ioos:station:NOAA.NERRS:marmbwq:1,2014-11-01T17:30:00Z,28.1384,-96.8285,28.0,1111122 
NERRS,ioos:station:NOAA.NERRS:marmbwq:1,2014-11-01T18:30:00Z,28.1384,-96.8285,32.0,1111122 
NERRS,ioos:station:NOAA.NERRS:marmbwq:1,2014-11-01T19:30:00Z,28.1384,-96.8285,30.0,1111122 
NERRS,ioos:station:NOAA.NERRS:marmbwq:1,2014-11-01T20:30:00Z,28.1384,-96.8285,22.0,1111122 
NERRS,ioos:station:NOAA.NERRS:marmbwq:1,2014-11-01T21:30:00Z,28.1384,-96.8285,26.0,1111122 
NERRS,ioos:station:NOAA.NERRS:marmbwq:1,2014-11-01T23:30:00Z,28.1384,-96.8285,26.0,1111122 
NERRS,ioos:station:NOAA.NERRS:marmbwq:1,2014-11-02T00:30:00Z,28.1384,-96.8285,22.0,1111122 
NERRS,ioos:station:NOAA.NERRS:marmbwq:1,2014-11-02T01:30:00Z,28.1384,-96.8285,17.0,1111122 
NERRS,ioos:station:NOAA.NERRS:marmbwq:1,2014-11-02T02:30:00Z,28.1384,-96.8285,19.0,1111122 
NERRS,ioos:station:NOAA.NERRS:marmbwq:1,2014-11-02T03:30:00Z,28.1384,-96.8285,13.0,1111122 
NERRS,ioos:station:NOAA.NERRS:marmbwq:1,2014-11-02T04:30:00Z,28.1384,-96.8285,16.0,1111122 
NERRS,ioos:station:NOAA.NERRS:marmbwq:1,2014-11-02T05:30:00Z,28.1384,-96.8285,12.0,1111122 
NERRS,ioos:station:NOAA.NERRS:marmbwq:1,2014-11-02T07:00:00Z,28.1384,-96.8285,12.0,1111122 
NERRS,ioos:station:NOAA.NERRS:marmbwq:1,2014-11-02T08:30:00Z,28.1384,-96.8285,10.0,1111122 
NERRS,ioos:station:NOAA.NERRS:marmbwq:1,2014-11-02T09:30:00Z,28.1384,-96.8285,13.0,1111122 
NERRS,ioos:station:NOAA.NERRS:marmbwq:1,2014-11-02T11:30:00Z,28.1384,-96.8285,26.0,1111122 
NERRS,ioos:station:NOAA.NERRS:marmbwq:1,2014-11-02T12:30:00Z,28.1384,-96.8285,11.0,1111122 
NERRS,ioos:station:NOAA.NERRS:marmbwq:1,2014-11-02T13:30:00Z,28.1384,-96.8285,12.0,1111122 
NERRS,ioos:station:NOAA.NERRS:marmbwq:1,2014-11-02T14:30:00Z,28.1384,-96.8285,13.0,1111122 
NERRS,ioos:station:NOAA.NERRS:marmbwq:1,2014-11-02T15:30:00Z,28.1384,-96.8285,10.0,1111122 
NERRS,ioos:station:NOAA.NERRS:marmbwq:1,2014-11-02T16:30:00Z,28.1384,-96.8285,11.0,1111122 
NERRS,ioos:station:NOAA.NERRS:marmbwq:1,2014-11-02T17:30:00Z,28.1384,-96.8285,9.0,1111122 
NERRS,ioos:station:NOAA.NERRS:marmbwq:1,2014-11-02T18:30:00Z,28.1384,-96.8285,9.0,1111122 
NERRS,ioos:station:NOAA.NERRS:marmbwq:1,2014-11-02T19:30:00Z,28.1384,-96.8285,12.0,1111122 
NERRS,ioos:station:NOAA.NERRS:marmbwq:1,2014-11-02T20:30:00Z,28.1384,-96.8285,13.0,1111122 
NERRS,ioos:station:NOAA.NERRS:marmbwq:1,2014-11-02T21:30:00Z,28.1384,-96.8285,15.0,1111122 
NERRS,ioos:station:NOAA.NERRS:marmbwq:1,2014-11-02T22:30:00Z,28.1384,-96.8285,17.0,1111122 
NERRS,ioos:station:NOAA.NERRS:marmbwq:1,2014-11-02T23:30:00Z,28.1384,-96.8285,20.0,1111122 
NERRS,ioos:station:NOAA.NERRS:marmbwq:1,2014-11-03T00:30:00Z,28.1384,-96.8285,22.0,1111122 
NERRS,ioos:station:NOAA.NERRS:marmbwq:1,2014-11-03T01:30:00Z,28.1384,-96.8285,22.0,1111122 
NERRS,ioos:station:NOAA.NERRS:marmbwq:1,2014-11-03T02:30:00Z,28.1384,-96.8285,21.0,1111122 
NERRS,ioos:station:NOAA.NERRS:marmbwq:1,2014-11-03T03:30:00Z,28.1384,-96.8285,24.0,1111122 
NERRS,ioos:station:NOAA.NERRS:marmbwq:1,2014-11-03T08:30:00Z,28.1384,-96.8285,24.0,1111122 
NERRS,ioos:station:NOAA.NERRS:marmbwq:1,2014-11-03T09:30:00Z,28.1384,-96.8285,23.0,1111122 
NERRS,ioos:station:NOAA.NERRS:marmbwq:1,2014-11-03T10:30:00Z,28.1384,-96.8285,22.0,1111122 
NERRS,ioos:station:NOAA.NERRS:marmbwq:1,2014-11-03T12:00:00Z,28.1384,-96.8285,38.0,1111122 
NERRS,ioos:station:NOAA.NERRS:marmbwq:1,2014-11-03T12:30:00Z,28.1384,-96.8285,34.0,1111122 
NERRS,ioos:station:NOAA.NERRS:marmbwq:1,2014-11-03T13:30:00Z,28.1384,-96.8285,45.0,1111122 
NERRS,ioos:station:NOAA.NERRS:marmbwq:1,2014-11-03T14:30:00Z,28.1384,-96.8285,50.0,1111122 
NERRS,ioos:station:NOAA.NERRS:marmbwq:1,2014-11-03T15:30:00Z,28.1384,-96.8285,46.0,1111122 
NERRS,ioos:station:NOAA.NERRS:marmbwq:1,2014-11-03T17:30:00Z,28.1384,-96.8285,33.0,1111122 
NERRS,ioos:station:NOAA.NERRS:marmbwq:1,2014-11-03T20:30:00Z,28.1384,-96.8285,46.0,1111122 
NERRS,ioos:station:NOAA.NERRS:marmbwq:1,2014-11-03T23:00:00Z,28.1384,-96.8285,47.0,1111122 
NERRS,ioos:station:NOAA.NERRS:marmbwq:1,2014-11-04T00:30:00Z,28.1384,-96.8285,47.0,1111122 
NERRS,ioos:station:NOAA.NERRS:marmbwq:1,2014-11-04T02:30:00Z,28.1384,-96.8285,74.0,1111122 
NERRS,ioos:station:NOAA.NERRS:marmbwq:1,2014-11-04T05:30:00Z,28.1384,-96.8285,64.0,1111122 
NERRS,ioos:station:NOAA.NERRS:marmbwq:1,2014-11-04T10:30:00Z,28.1384,-96.8285,63.0,1111122 
NERRS,ioos:station:NOAA.NERRS:marmbwq:1,2014-11-04T11:30:00Z,28.1384,-96.8285,47.0,1111122 
NERRS,ioos:station:NOAA.NERRS:marmbwq:1,2014-11-04T12:30:00Z,28.1384,-96.8285,47.0,1111122 
NERRS,ioos:station:NOAA.NERRS:marmbwq:1,2014-11-04T13:30:00Z,28.1384,-96.8285,34.0,1111122 
NERRS,ioos:station:NOAA.NERRS:marmbwq:1,2014-11-04T14:30:00Z,28.1384,-96.8285,24.0,1111122 
NERRS,ioos:station:NOAA.NERRS:marmbwq:1,2014-11-04T17:00:00Z,28.1384,-96.8285,41.0,1111122 
NERRS,ioos:station:NOAA.NERRS:marmbwq:1,2014-11-04T17:30:00Z,28.1384,-96.8285,36.0,1111122 
NERRS,ioos:station:NOAA.NERRS:marmbwq:1,2014-11-04T20:30:00Z,28.1384,-96.8285,46.0,1111122 
NERRS,ioos:station:NOAA.NERRS:marmbwq:1,2014-11-04T21:30:00Z,28.1384,-96.8285,37.0,1111122 
NERRS,ioos:station:NOAA.NERRS:marmbwq:1,2014-11-04T23:00:00Z,28.1384,-96.8285,27.0,1111122 
NERRS,ioos:station:NOAA.NERRS:marmbwq:1,2014-11-04T23:30:00Z,28.1384,-96.8285,26.0,1111122 
NERRS,ioos:station:NOAA.NERRS:marmbwq:1,2014-11-05T00:30:00Z,28.1384,-96.8285,24.0,1111122 
NERRS,ioos:station:NOAA.NERRS:marmbwq:1,2014-11-05T01:30:00Z,28.1384,-96.8285,34.0,1111122 
NERRS,ioos:station:NOAA.NERRS:marmbwq:1,2014-11-05T02:30:00Z,28.1384,-96.8285,32.0,1111122 
NERRS,ioos:station:NOAA.NERRS:marmbwq:1,2014-11-05T04:30:00Z,28.1384,-96.8285,15.0,1111122 
NERRS,ioos:station:NOAA.NERRS:marmbwq:1,2014-11-05T05:30:00Z,28.1384,-96.8285,18.0,1111122 
NERRS,ioos:station:NOAA.NERRS:marmbwq:1,2014-11-05T06:30:00Z,28.1384,-96.8285,16.0,1111122 
NERRS,ioos:station:NOAA.NERRS:marmbwq:1,2014-11-05T09:30:00Z,28.1384,-96.8285,17.0,1111122 
NERRS,ioos:station:NOAA.NERRS:marmbwq:1,2014-11-05T10:30:00Z,28.1384,-96.8285,20.0,1111122 
NERRS,ioos:station:NOAA.NERRS:marmbwq:1,2014-11-05T12:30:00Z,28.1384,-96.8285,19.0,1111122 
NERRS,ioos:station:NOAA.NERRS:marmbwq:1,2014-11-05T13:30:00Z,28.1384,-96.8285,19.0,1111122 
NERRS,ioos:station:NOAA.NERRS:marmbwq:1,2014-11-05T14:30:00Z,28.1384,-96.8285,20.0,1111122 
NERRS,ioos:station:NOAA.NERRS:marmbwq:1,2014-11-05T15:30:00Z,28.1384,-96.8285,23.0,1111122 
NERRS,ioos:station:NOAA.NERRS:marmbwq:1,2014-11-05T16:30:00Z,28.1384,-96.8285,21.0,1111122 
NERRS,ioos:station:NOAA.NERRS:marmbwq:1,2014-11-05T17:30:00Z,28.1384,-96.8285,20.0,1111122 
NERRS,ioos:station:NOAA.NERRS:marmbwq:1,2014-11-05T19:30:00Z,28.1384,-96.8285,20.0,1111122 
NERRS,ioos:station:NOAA.NERRS:marmbwq:1,2014-11-05T20:30:00Z,28.1384,-96.8285,26.0,1111122 
NERRS,ioos:station:NOAA.NERRS:marmbwq:1,2014-11-05T21:30:00Z,28.1384,-96.8285,33.0,1111122 
NERRS,ioos:station:NOAA.NERRS:marmbwq:1,2014-11-05T22:30:00Z,28.1384,-96.8285,42.0,1111122 
NERRS,ioos:station:NOAA.NERRS:marmbwq:1,2014-11-05T23:30:00Z,28.1384,-96.8285,36.0,1111122 
NERRS,ioos:station:NOAA.NERRS:marmbwq:1,2014-11-06T00:30:00Z,28.1384,-96.8285,40.0,1111122 
NERRS,ioos:station:NOAA.NERRS:marmbwq:1,2014-11-06T01:30:00Z,28.1384,-96.8285,46.0,1111122 
NERRS,ioos:station:NOAA.NERRS:marmbwq:1,2014-11-06T02:30:00Z,28.1384,-96.8285,66.0,1111122 
NERRS,ioos:station:NOAA.NERRS:marmbwq:1,2014-11-06T03:30:00Z,28.1384,-96.8285,77.0,1111122 
NERRS,ioos:station:NOAA.NERRS:marmbwq:1,2014-11-06T04:30:00Z,28.1384,-96.8285,72.0,1111122 
NERRS,ioos:station:NOAA.NERRS:marmbwq:1,2014-11-06T05:30:00Z,28.1384,-96.8285,71.0,1111122 
NERRS,ioos:station:NOAA.NERRS:marmbwq:1,2014-11-06T06:30:00Z,28.1384,-96.8285,62.0,1111122 
NERRS,ioos:station:NOAA.NERRS:marmbwq:1,2014-11-06T09:00:00Z,28.1384,-96.8285,55.0,1111122 
NERRS,ioos:station:NOAA.NERRS:marmbwq:1,2014-11-06T09:30:00Z,28.1384,-96.8285,58.0,1111122 
NERRS,ioos:station:NOAA.NERRS:marmbwq:1,2014-11-06T10:30:00Z,28.1384,-96.8285,58.0,1111122 
NERRS,ioos:station:NOAA.NERRS:marmbwq:1,2014-11-06T11:30:00Z,28.1384,-96.8285,60.0,1111122 
NERRS,ioos:station:NOAA.NERRS:marmbwq:1,2014-11-06T12:30:00Z,28.1384,-96.8285,48.0,1111122 
NERRS,ioos:station:NOAA.NERRS:marmbwq:1,2014-11-06T13:30:00Z,28.1384,-96.8285,64.0,1111122 
NERRS,ioos:station:NOAA.NERRS:marmbwq:1,2014-11-06T15:30:00Z,28.1384,-96.8285,85.0,1111122 
NERRS,ioos:station:NOAA.NERRS:marmbwq:1,2014-11-06T17:30:00Z,28.1384,-96.8285,53.0,1111122 
NERRS,ioos:station:NOAA.NERRS:marmbwq:1,2014-11-06T18:30:00Z,28.1384,-96.8285,75.0,1111122 
NERRS,ioos:station:NOAA.NERRS:marmbwq:1,2014-11-06T19:30:00Z,28.1384,-96.8285,71.0,1111122 
NERRS,ioos:station:NOAA.NERRS:marmbwq:1,2014-11-06T20:30:00Z,28.1384,-96.8285,85.0,1111122 
NERRS,ioos:station:NOAA.NERRS:marmbwq:1,2014-11-06T21:30:00Z,28.1384,-96.8285,77.0,1111122 
NERRS,ioos:station:NOAA.NERRS:marmbwq:1,2014-11-06T23:00:00Z,28.1384,-96.8285,79.0,1111122 
NERRS,ioos:station:NOAA.NERRS:marmbwq:1,2014-11-06T23:30:00Z,28.1384,-96.8285,72.0,1111122 
NERRS,ioos:station:NOAA.NERRS:marmbwq:1,2014-11-07T00:30:00Z,28.1384,-96.8285,76.0,1111122 
NERRS,ioos:station:NOAA.NERRS:marmbwq:1,2014-11-07T01:30:00Z,28.1384,-96.8285,65.0,1111122 
NERRS,ioos:station:NOAA.NERRS:marmbwq:1,2014-11-07T02:30:00Z,28.1384,-96.8285,79.0,1111122 
NERRS,ioos:station:NOAA.NERRS:marmbwq:1,2014-11-07T03:30:00Z,28.1384,-96.8285,101.0,1111122 
NERRS,ioos:station:NOAA.NERRS:marmbwq:1,2014-11-07T04:30:00Z,28.1384,-96.8285,89.0,1111122 
NERRS,ioos:station:NOAA.NERRS:marmbwq:1,2014-11-07T05:30:00Z,28.1384,-96.8285,90.0,1111122 
NERRS,ioos:station:NOAA.NERRS:marmbwq:1,2014-11-07T06:30:00Z,28.1384,-96.8285,80.0,1111122 
NERRS,ioos:station:NOAA.NERRS:marmbwq:1,2014-11-07T07:30:00Z,28.1384,-96.8285,61.0,1111122 
NERRS,ioos:station:NOAA.NERRS:marmbwq:1,2014-11-07T08:30:00Z,28.1384,-96.8285,61.0,1111122 
NERRS,ioos:station:NOAA.NERRS:marmbwq:1,2014-11-07T09:30:00Z,28.1384,-96.8285,75.0,1111122 
NERRS,ioos:station:NOAA.NERRS:marmbwq:1,2014-11-07T10:30:00Z,28.1384,-96.8285,82.0,1111122 
NERRS,ioos:station:NOAA.NERRS:marmbwq:1,2014-11-07T11:30:00Z,28.1384,-96.8285,68.0,1111122 
NERRS,ioos:station:NOAA.NERRS:marmbwq:1,2014-11-07T12:30:00Z,28.1384,-96.8285,71.0,1111122 
NERRS,ioos:station:NOAA.NERRS:marmbwq:1,2014-11-07T13:30:00Z,28.1384,-96.8285,60.0,1111122 
NERRS,ioos:station:NOAA.NERRS:marmbwq:1,2014-11-07T14:30:00Z,28.1384,-96.8285,67.0,1111122 
NERRS,ioos:station:NOAA.NERRS:marmbwq:1,2014-11-07T15:30:00Z,28.1384,-96.8285,72.0,1111122 
NERRS,ioos:station:NOAA.NERRS:marmbwq:1,2014-11-07T16:30:00Z,28.1384,-96.8285,71.0,1111122 
NERRS,ioos:station:NOAA.NERRS:marmbwq:1,2014-11-07T17:30:00Z,28.1384,-96.8285,70.0,1111122 
NERRS,ioos:station:NOAA.NERRS:marmbwq:1,2014-11-07T18:30:00Z,28.1384,-96.8285,54.0,1111122 
NERRS,ioos:station:NOAA.NERRS:marmbwq:1,2014-11-07T19:30:00Z,28.1384,-96.8285,34.0,1111122 
NERRS,ioos:station:NOAA.NERRS:marmbwq:1,2014-11-07T20:30:00Z,28.1384,-96.8285,30.0,1111122 
NERRS,ioos:station:NOAA.NERRS:marmbwq:1,2014-11-07T21:30:00Z,28.1384,-96.8285,34.0,1111122 
NERRS,ioos:station:NOAA.NERRS:marmbwq:1,2014-11-07T22:30:00Z,28.1384,-96.8285,33.0,1111122 
NERRS,ioos:station:NOAA.NERRS:marmbwq:1,2014-11-07T23:30:00Z,28.1384,-96.8285,36.0,1111122 
NERRS,ioos:station:NOAA.NERRS:marmbwq:1,2014-11-08T00:30:00Z,28.1384,-96.8285,31.0,1111122 
NERRS,ioos:station:NOAA.NERRS:marmbwq:1,2014-11-08T01:30:00Z,28.1384,-96.8285,29.0,1111122 
NERRS,ioos:station:NOAA.NERRS:marmbwq:1,2014-11-08T02:30:00Z,28.1384,-96.8285,24.0,1111122 
NERRS,ioos:station:NOAA.NERRS:marmbwq:1,2014-11-08T03:30:00Z,28.1384,-96.8285,22.0,1111122 
NERRS,ioos:station:NOAA.NERRS:marmbwq:1,2014-11-08T05:30:00Z,28.1384,-96.8285,12.0,1111122 
NERRS,ioos:station:NOAA.NERRS:marmbwq:1,2014-11-08T06:30:00Z,28.1384,-96.8285,12.0,1111122 
NERRS,ioos:station:NOAA.NERRS:marmbwq:1,2014-11-08T07:30:00Z,28.1384,-96.8285,11.0,1111122 
NERRS,ioos:station:NOAA.NERRS:marmbwq:1,2014-11-08T10:30:00Z,28.1384,-96.8285,10.0,1111122 
NERRS,ioos:station:NOAA.NERRS:marmbwq:1,2014-11-08T12:30:00Z,28.1384,-96.8285,13.0,1111122 
NERRS,ioos:station:NOAA.NERRS:marmbwq:1,2014-11-08T13:30:00Z,28.1384,-96.8285,18.0,1111122 
NERRS,ioos:station:NOAA.NERRS:marmbwq:1,2014-11-08T15:30:00Z,28.1384,-96.8285,15.0,1111122 
NERRS,ioos:station:NOAA.NERRS:marmbwq:1,2014-11-08T16:30:00Z,28.1384,-96.8285,12.0,1111122 
NERRS,ioos:station:NOAA.NERRS:marmbwq:1,2014-11-08T18:30:00Z,28.1384,-96.8285,10.0,1111122 
NERRS,ioos:station:NOAA.NERRS:marmbwq:1,2014-11-08T19:30:00Z,28.1384,-96.8285,10.0,1111122 
NERRS,ioos:station:NOAA.NERRS:marmbwq:1,2014-11-08T20:30:00Z,28.1384,-96.8285,12.0,1111122 
NERRS,ioos:station:NOAA.NERRS:marmbwq:1,2014-11-08T21:30:00Z,28.1384,-96.8285,9.0,1111122 
NERRS,ioos:station:NOAA.NERRS:marmbwq:1,2014-11-08T22:30:00Z,28.1384,-96.8285,7.0,1111122 
NERRS,ioos:station:NOAA.NERRS:marmbwq:1,2014-11-08T23:30:00Z,28.1384,-96.8285,8.0,1111122 
NERRS,ioos:station:NOAA.NERRS:marmbwq:1,2014-11-09T00:30:00Z,28.1384,-96.8285,7.0,1111122 
NERRS,ioos:station:NOAA.NERRS:marmbwq:1,2014-11-09T01:30:00Z,28.1384,-96.8285,7.0,1111122 
NERRS,ioos:station:NOAA.NERRS:marmbwq:1,2014-11-09T02:30:00Z,28.1384,-96.8285,4.0,1111122 
NERRS,ioos:station:NOAA.NERRS:marmbwq:1,2014-11-09T03:30:00Z,28.1384,-96.8285,4.0,1111122 
NERRS,ioos:station:NOAA.NERRS:marmbwq:1,2014-11-09T04:30:00Z,28.1384,-96.8285,11.0,1111122 
NERRS,ioos:station:NOAA.NERRS:marmbwq:1,2014-11-09T05:30:00Z,28.1384,-96.8285,15.0,1111122 
NERRS,ioos:station:NOAA.NERRS:marmbwq:1,2014-11-09T06:30:00Z,28.1384,-96.8285,13.0,1111122 
NERRS,ioos:station:NOAA.NERRS:marmbwq:1,2014-11-09T07:30:00Z,28.1384,-96.8285,15.0,1111122 
NERRS,ioos:station:NOAA.NERRS:marmbwq:1,2014-11-09T08:30:00Z,28.1384,-96.8285,11.0,1111122 
NERRS,ioos:station:NOAA.NERRS:marmbwq:1,2014-11-09T09:30:00Z,28.1384,-96.8285,11.0,1111122 
NERRS,ioos:station:NOAA.NERRS:marmbwq:1,2014-11-09T10:30:00Z,28.1384,-96.8285,12.0,1111122 
NERRS,ioos:station:NOAA.NERRS:marmbwq:1,2014-11-09T11:30:00Z,28.1384,-96.8285,13.0,1111122 
NERRS,ioos:station:NOAA.NERRS:marmbwq:1,2014-11-09T12:30:00Z,28.1384,-96.8285,13.0,1111122 
NERRS,ioos:station:NOAA.NERRS:marmbwq:1,2014-11-09T13:30:00Z,28.1384,-96.8285,16.0,1111122 
NERRS,ioos:station:NOAA.NERRS:marmbwq:1,2014-11-09T14:30:00Z,28.1384,-96.8285,14.0,1111122 
NERRS,ioos:station:NOAA.NERRS:marmbwq:1,2014-11-09T15:30:00Z,28.1384,-96.8285,12.0,1111122 
NERRS,ioos:station:NOAA.NERRS:marmbwq:1,2014-11-09T16:30:00Z,28.1384,-96.8285,11.0,1111122 
NERRS,ioos:station:NOAA.NERRS:marmbwq:1,2014-11-09T17:30:00Z,28.1384,-96.8285,7.0,1111122 
NERRS,ioos:station:NOAA.NERRS:marmbwq:1,2014-11-09T18:30:00Z,28.1384,-96.8285,6.0,1111122 
NERRS,ioos:station:NOAA.NERRS:marmbwq:1,2014-11-09T19:30:00Z,28.1384,-96.8285,6.0,1111122 
NERRS,ioos:station:NOAA.NERRS:marmbwq:1,2014-11-09T20:30:00Z,28.1384,-96.8285,7.0,1111122 
NERRS,ioos:station:NOAA.NERRS:marmbwq:1,2014-11-09T21:30:00Z,28.1384,-96.8285,6.0,1111122 
NERRS,ioos:station:NOAA.NERRS:marmbwq:1,2014-11-09T22:30:00Z,28.1384,-96.8285,6.0,1111122 
NERRS,ioos:station:NOAA.NERRS:marmbwq:1,2014-11-09T23:30:00Z,28.1384,-96.8285,5.0,1111122 
NERRS,ioos:station:NOAA.NERRS:marmbwq:1,2014-11-10T00:30:00Z,28.1384,-96.8285,5.0,1111122 
NERRS,ioos:station:NOAA.NERRS:marmbwq:1,2014-11-10T03:30:00Z,28.1384,-96.8285,6.0,1111122 
NERRS,ioos:station:NOAA.NERRS:marmbwq:1,2014-11-10T04:30:00Z,28.1384,-96.8285,4.0,1111122 
NERRS,ioos:station:NOAA.NERRS:marmbwq:1,2014-11-10T05:30:00Z,28.1384,-96.8285,6.0,1111122 
NERRS,ioos:station:NOAA.NERRS:marmbwq:1,2014-11-10T06:30:00Z,28.1384,-96.8285,5.0,1111122 
NERRS,ioos:station:NOAA.NERRS:marmbwq:1,2014-11-10T07:30:00Z,28.1384,-96.8285,5.0,1111122 
NERRS,ioos:station:NOAA.NERRS:marmbwq:1,2014-11-10T08:30:00Z,28.1384,-96.8285,6.0,1111122 
NERRS,ioos:station:NOAA.NERRS:marmbwq:1,2014-11-10T09:30:00Z,28.1384,-96.8285,5.0,1111122 
NERRS,ioos:station:NOAA.NERRS:marmbwq:1,2014-11-10T11:30:00Z,28.1384,-96.8285,5.0,1111122 
NERRS,ioos:station:NOAA.NERRS:marmbwq:1,2014-11-10T12:30:00Z,28.1384,-96.8285,6.0,1111122 
NERRS,ioos:station:NOAA.NERRS:marmbwq:1,2014-11-10T13:30:00Z,28.1384,-96.8285,7.0,1111122 
NERRS,ioos:station:NOAA.NERRS:marmbwq:1,2014-11-10T14:30:00Z,28.1384,-96.8285,8.0,1111122 
NERRS,ioos:station:NOAA.NERRS:marmbwq:1,2014-11-10T15:30:00Z,28.1384,-96.8285,10.0,1111122 
NERRS,ioos:station:NOAA.NERRS:marmbwq:1,2014-11-10T16:30:00Z,28.1384,-96.8285,12.0,1111122 
NERRS,ioos:station:NOAA.NERRS:marmbwq:1,2014-11-10T17:30:00Z,28.1384,-96.8285,14.0,1111122 
NERRS,ioos:station:NOAA.NERRS:marmbwq:1,2014-11-10T18:30:00Z,28.1384,-96.8285,22.0,1111122 
NERRS,ioos:station:NOAA.NERRS:marmbwq:1,2014-11-10T19:30:00Z,28.1384,-96.8285,22.0,1111122 
NERRS,ioos:station:NOAA.NERRS:marmbwq:1,2014-11-10T20:30:00Z,28.1384,-96.8285,25.0,1111122 
NERRS,ioos:station:NOAA.NERRS:marmbwq:1,2014-11-10T21:30:00Z,28.1384,-96.8285,15.0,1111122 
NERRS,ioos:station:NOAA.NERRS:marmbwq:1,2014-11-10T23:30:00Z,28.1384,-96.8285,14.0,1111122 
NERRS,ioos:station:NOAA.NERRS:marmbwq:1,2014-11-11T00:30:00Z,28.1384,-96.8285,16.0,1111122 
NERRS,ioos:station:NOAA.NERRS:marmbwq:1,2014-11-11T01:30:00Z,28.1384,-96.8285,13.0,1111122 
NERRS,ioos:station:NOAA.NERRS:marmbwq:1,2014-11-11T02:30:00Z,28.1384,-96.8285,16.0,1111122 
NERRS,ioos:station:NOAA.NERRS:marmbwq:1,2014-11-11T03:30:00Z,28.1384,-96.8285,14.0,1111122 
NERRS,ioos:station:NOAA.NERRS:marmbwq:1,2014-11-11T04:30:00Z,28.1384,-96.8285,9.0,1111122 
NERRS,ioos:station:NOAA.NERRS:marmbwq:1,2014-11-11T05:30:00Z,28.1384,-96.8285,12.0,1111122 
NERRS,ioos:station:NOAA.NERRS:marmbwq:1,2014-11-11T06:30:00Z,28.1384,-96.8285,15.0,1111122 
NERRS,ioos:station:NOAA.NERRS:marmbwq:1,2014-11-11T07:30:00Z,28.1384,-96.8285,13.0,1111122 
NERRS,ioos:station:NOAA.NERRS:marmbwq:1,2014-11-11T08:30:00Z,28.1384,-96.8285,13.0,1111122 
NERRS,ioos:station:NOAA.NERRS:marmbwq:1,2014-11-11T09:30:00Z,28.1384,-96.8285,6.0,1111122 
NERRS,ioos:station:NOAA.NERRS:marmbwq:1,2014-11-11T10:30:00Z,28.1384,-96.8285,5.0,1111122 
NERRS,ioos:station:NOAA.NERRS:marmbwq:1,2014-11-11T11:30:00Z,28.1384,-96.8285,3.0,1111122 
NERRS,ioos:station:NOAA.NERRS:marmbwq:1,2014-11-11T12:30:00Z,28.1384,-96.8285,4.0,1111122 
NERRS,ioos:station:NOAA.NERRS:marmbwq:1,2014-11-11T13:30:00Z,28.1384,-96.8285,4.0,1111122 
NERRS,ioos:station:NOAA.NERRS:marmbwq:1,2014-11-11T14:30:00Z,28.1384,-96.8285,4.0,1111122 
NERRS,ioos:station:NOAA.NERRS:marmbwq:1,2014-11-11T18:30:00Z,28.1384,-96.8285,4.0,1111122 
NERRS,ioos:station:NOAA.NERRS:marmbwq:1,2014-11-11T19:30:00Z,28.1384,-96.8285,32.0,1111122 
NERRS,ioos:station:NOAA.NERRS:marmbwq:1,2014-11-11T20:30:00Z,28.1384,-96.8285,43.0,1111122 
NERRS,ioos:station:NOAA.NERRS:marmbwq:1,2014-11-11T23:00:00Z,28.1384,-96.8285,56.0,1111122 
NERRS,ioos:station:NOAA.NERRS:marmbwq:1,2014-11-11T23:30:00Z,28.1384,-96.8285,86.0,1111122 
NERRS,ioos:station:NOAA.NERRS:marmbwq:1,2014-11-12T00:30:00Z,28.1384,-96.8285,80.0,1111122 
NERRS,ioos:station:NOAA.NERRS:marmbwq:1,2014-11-12T01:30:00Z,28.1384,-96.8285,87.0,1111122 
NERRS,ioos:station:NOAA.NERRS:marmbwq:1,2014-11-12T02:30:00Z,28.1384,-96.8285,90.0,1111122 
NERRS,ioos:station:NOAA.NERRS:marmbwq:1,2014-11-12T03:30:00Z,28.1384,-96.8285,98.0,1111122 
NERRS,ioos:station:NOAA.NERRS:marmbwq:1,2014-11-12T23:30:00Z,28.1384,-96.8285,114.0,1111122 
NERRS,ioos:station:NOAA.NERRS:marmbwq:1,2014-11-13T00:30:00Z,28.1384,-96.8285,101.0,1111122 
NERRS,ioos:station:NOAA.NERRS:marmbwq:1,2014-11-13T01:30:00Z,28.1384,-96.8285,97.0,1111122 
NERRS,ioos:station:NOAA.NERRS:marmbwq:1,2014-11-13T02:30:00Z,28.1384,-96.8285,126.0,1111122 
NERRS,ioos:station:NOAA.NERRS:marmbwq:1,2014-11-13T03:30:00Z,28.1384,-96.8285,91.0,1111122 
NERRS,ioos:station:NOAA.NERRS:marmbwq:1,2014-11-13T04:30:00Z,28.1384,-96.8285,77.0,1111122 
NERRS,ioos:station:NOAA.NERRS:marmbwq:1,2014-11-13T05:30:00Z,28.1384,-96.8285,82.0,1111122 
NERRS,ioos:station:NOAA.NERRS:marmbwq:1,2014-11-13T06:30:00Z,28.1384,-96.8285,98.0,1111122 
NERRS,ioos:station:NOAA.NERRS:marmbwq:1,2014-11-13T07:30:00Z,28.1384,-96.8285,136.0,1111122 
NERRS,ioos:station:NOAA.NERRS:marmbwq:1,2014-11-13T08:30:00Z,28.1384,-96.8285,136.0,1111122 
NERRS,ioos:station:NOAA.NERRS:marmbwq:1,2014-11-13T09:30:00Z,28.1384,-96.8285,150.0,1111122 
NERRS,ioos:station:NOAA.NERRS:marmbwq:1,2014-11-13T10:30:00Z,28.1384,-96.8285,146.0,1111122 
NERRS,ioos:station:NOAA.NERRS:marmbwq:1,2014-11-13T11:30:00Z,28.1384,-96.8285,136.0,1111122 
NERRS,ioos:station:NOAA.NERRS:marmbwq:1,2014-11-13T12:30:00Z,28.1384,-96.8285,143.0,1111122 
NERRS,ioos:station:NOAA.NERRS:marmbwq:1,2014-11-13T13:30:00Z,28.1384,-96.8285,150.0,1111122 
NERRS,ioos:station:NOAA.NERRS:marmbwq:1,2014-11-13T14:30:00Z,28.1384,-96.8285,152.0,1111122 
NERRS,ioos:station:NOAA.NERRS:marmbwq:1,2014-11-13T15:30:00Z,28.1384,-96.8285,155.0,1111122 
NERRS,ioos:station:NOAA.NERRS:marmbwq:1,2014-11-13T16:30:00Z,28.1384,-96.8285,162.0,1111122 
NERRS,ioos:station:NOAA.NERRS:marmbwq:1,2014-11-13T18:30:00Z,28.1384,-96.8285,157.0,1111122 
NERRS,ioos:station:NOAA.NERRS:marmbwq:1,2014-11-13T19:30:00Z,28.1384,-96.8285,142.0,1111122 
NERRS,ioos:station:NOAA.NERRS:marmbwq:1,2014-11-13T20:30:00Z,28.1384,-96.8285,155.0,1111122 
NERRS,ioos:station:NOAA.NERRS:marmbwq:1,2014-11-13T21:30:00Z,28.1384,-96.8285,178.0,1111122 
NERRS,ioos:station:NOAA.NERRS:marmbwq:1,2014-11-13T22:30:00Z,28.1384,-96.8285,221.0,1111122 
NERRS,ioos:station:NOAA.NERRS:marmbwq:1,2014-11-14T01:30:00Z,28.1384,-96.8285,214.0,1111122 
NERRS,ioos:station:NOAA.NERRS:marmbwq:1,2014-11-14T02:30:00Z,28.1384,-96.8285,120.0,1111122 
NERRS,ioos:station:NOAA.NERRS:marmbwq:1,2014-11-14T03:30:00Z,28.1384,-96.8285,82.0,1111122 
NERRS,ioos:station:NOAA.NERRS:marmbwq:1,2014-11-14T04:30:00Z,28.1384,-96.8285,72.0,1111122 
NERRS,ioos:station:NOAA.NERRS:marmbwq:1,2014-11-14T05:30:00Z,28.1384,-96.8285,181.0,1111122 
NERRS,ioos:station:NOAA.NERRS:marmbwq:1,2014-11-14T06:30:00Z,28.1384,-96.8285,188.0,1111122 
NERRS,ioos:station:NOAA.NERRS:marmbwq:1,2014-11-14T07:30:00Z,28.1384,-96.8285,191.0,1111122 
NERRS,ioos:station:NOAA.NERRS:marmbwq:1,2014-11-14T08:30:00Z,28.1384,-96.8285,186.0,1111122 
NERRS,ioos:station:NOAA.NERRS:marmbwq:1,2014-11-14T09:30:00Z,28.1384,-96.8285,182.0,1111122 
NERRS,ioos:station:NOAA.NERRS:marmbwq:1,2014-11-14T10:30:00Z,28.1384,-96.8285,174.0,1111122 
NERRS,ioos:station:NOAA.NERRS:marmbwq:1,2014-11-14T11:30:00Z,28.1384,-96.8285,172.0,1111122 
NERRS,ioos:station:NOAA.NERRS:marmbwq:1,2014-11-14T12:30:00Z,28.1384,-96.8285,181.0,1111122 
NERRS,ioos:station:NOAA.NERRS:marmbwq:1,2014-11-14T13:30:00Z,28.1384,-96.8285,179.0,1111122 
NERRS,ioos:station:NOAA.NERRS:marmbwq:1,2014-11-14T14:30:00Z,28.1384,-96.8285,176.0,1111122 
NERRS,ioos:station:NOAA.NERRS:marmbwq:1,2014-11-14T16:30:00Z,28.1384,-96.8285,128.0,1111122 
NERRS,ioos:station:NOAA.NERRS:marmbwq:1,2014-11-14T17:30:00Z,28.1384,-96.8285,83.0,1111122 
NERRS,ioos:station:NOAA.NERRS:marmbwq:1,2014-11-14T18:30:00Z,28.1384,-96.8285,45.0,1111122 